• In United Kingdom
  • List of Countries
  • For 7 days
  • Water Temperature
  • Satellite Maps
  • Weather Map
  • Weather Widgets
  • user-avatar
    Login

    Hourly Weather Hobart

    Today, 29 May, Monday

    Time Temperature Precipitation Wind Pressure Humidity
    00:00 +4°C° 0 mm 4 mps 741 mmHg 93%
    01:00 +4°C° 0 mm 4 mps 741 mmHg 93%
    02:00 +4°C° 0 mm 4 mps 741 mmHg 94%
    03:00 +4°C° 0 mm 4 mps 742 mmHg 94%
    04:00 +4°C° 0 mm 4 mps 742 mmHg 94%
    05:00 +4°C° 0 mm 4 mps 742 mmHg 94%
    06:00 +5°C° 0 mm 4 mps 743 mmHg 93%
    07:00 +5°C° 0 mm 4 mps 743 mmHg 93%
    08:00 +6°C° 0 mm 4 mps 744 mmHg 89%
    09:00 +7°C° 0 mm 5 mps 744 mmHg 85%
    10:00 +8°C° 0 mm 5 mps 744 mmHg 81%
    11:00 +8°C° 0 mm 5 mps 745 mmHg 76%
    12:00 +9°C° 0 mm 6 mps 745 mmHg 72%
    13:00 +9°C° 0 mm 6 mps 745 mmHg 68%
    14:00 +9°C° 0 mm 6 mps 745 mmHg 69%
    15:00 +8°C° 0 mm 5 mps 745 mmHg 71%
    16:00 +8°C° 0 mm 5 mps 745 mmHg 72%
    17:00 +7°C° 0 mm 4 mps 745 mmHg 77%
    18:00 +6°C° 0 mm 4 mps 746 mmHg 82%
    19:00 +5°C° 0 mm 4 mps 746 mmHg 88%
    20:00 +6°C° 0 mm 4 mps 746 mmHg 87%
    21:00 +6°C° 0 mm 4 mps 745 mmHg 86%
    22:00 +7°C° 0 mm 4 mps 745 mmHg 85%
    23:00 +7°C° 0.1 mm 4 mps 745 mmHg 85%

    Tomorrow, 30 May, Tuesday

    Time Temperature Precipitation Wind Pressure Humidity
    00:00 +8°C° 0.1 mm 4 mps 745 mmHg 86%
    01:00 +8°C° 0.1 mm 4 mps 744 mmHg 86%
    02:00 +8°C° 0.8 mm 4 mps 744 mmHg 89%
    03:00 +8°C° 0.8 mm 4 mps 744 mmHg 91%
    04:00 +8°C° 0.8 mm 5 mps 744 mmHg 94%
    05:00 +7°C° 0.7 mm 5 mps 745 mmHg 94%
    06:00 +7°C° 0.7 mm 5 mps 745 mmHg 95%
    07:00 +6°C° 0.7 mm 5 mps 746 mmHg 96%
    08:00 +6°C° 0.4 mm 5 mps 746 mmHg 93%
    09:00 +7°C° 0.4 mm 6 mps 747 mmHg 90%
    10:00 +7°C° 0.4 mm 6 mps 748 mmHg 88%
    11:00 +7°C° 0.2 mm 6 mps 748 mmHg 84%
    12:00 +6°C° 0.2 mm 7 mps 749 mmHg 80%
    13:00 +6°C° 0.2 mm 7 mps 749 mmHg 77%
    14:00 +7°C° 0.2 mm 6 mps 750 mmHg 78%
    15:00 +5°C° 0.2 mm 6 mps 750 mmHg 78%
    16:00 +5°C° 0.2 mm 6 mps 751 mmHg 79%
    17:00 +5°C° 0.1 mm 5 mps 752 mmHg 83%
    18:00 +3°C° 0.1 mm 5 mps 752 mmHg 86%
    19:00 +2°C° 0.1 mm 5 mps 753 mmHg 89%
    20:00 +1°C° 0.1 mm 5 mps 753 mmHg 89%
    21:00 +1°C° 0.1 mm 5 mps 754 mmHg 90%
    22:00 +1°C° 0.1 mm 5 mps 755 mmHg 90%
    23:00 +1°C° 0.1 mm 5 mps 755 mmHg 90%

    Day after tomorrow, 31 May, Wednesday

    Time Temperature Precipitation Wind Pressure Humidity
    00:00 +1°C° 0.1 mm 5 mps 755 mmHg 91%
    01:00 +1°C° 0.1 mm 5 mps 755 mmHg 91%
    02:00 +1°C° 0.1 mm 4 mps 756 mmHg 90%
    03:00 +1°C° 0.1 mm 4 mps 756 mmHg 90%
    04:00 +3°C° 0.1 mm 4 mps 756 mmHg 89%
    05:00 +3°C° 0.1 mm 4 mps 756 mmHg 88%
    06:00 +3°C° 0.1 mm 4 mps 757 mmHg 88%
    07:00 +3°C° 0.1 mm 5 mps 757 mmHg 87%
    08:00 +5°C° 0.1 mm 5 mps 757 mmHg 83%
    09:00 +6°C° 0.1 mm 5 mps 758 mmHg 80%
    10:00 +7°C° 0.1 mm 5 mps 758 mmHg 76%
    11:00 +7°C° 0.1 mm 5 mps 758 mmHg 74%
    12:00 +7°C° 0.1 mm 5 mps 758 mmHg 73%
    13:00 +8°C° 0.1 mm 5 mps 758 mmHg 71%
    14:00 +8°C° 0 mm 5 mps 758 mmHg 72%
    15:00 +7°C° 0 mm 5 mps 758 mmHg 74%
    16:00 +7°C° 0 mm 5 mps 758 mmHg 76%
    17:00 +6°C° 0 mm 5 mps 758 mmHg 81%
    18:00 +6°C° 0 mm 5 mps 759 mmHg 85%
    19:00 +5°C° 0 mm 5 mps 759 mmHg 90%
    20:00 +5°C° 0 mm 5 mps 759 mmHg 90%
    21:00 +5°C° 0 mm 5 mps 759 mmHg 89%
    22:00 +5°C° 0 mm 5 mps 760 mmHg 88%
    23:00 +5°C° 0 mm 5 mps 760 mmHg 90%

    1 June, Thursday

    Time Temperature Precipitation Wind Pressure Humidity
    00:00 +5°C° 0 mm 5 mps 760 mmHg 92%
    01:00 +6°C° 0 mm 5 mps 759 mmHg 94%
    02:00 +5°C° 0 mm 5 mps 759 mmHg 95%
    03:00 +5°C° 0 mm 4 mps 759 mmHg 96%
    04:00 +5°C° 0 mm 4 mps 759 mmHg 97%
    05:00 +5°C° 0 mm 4 mps 760 mmHg 97%
    06:00 +6°C° 0 mm 4 mps 760 mmHg 97%
    07:00 +6°C° 0 mm 4 mps 760 mmHg 97%
    08:00 +7°C° 0 mm 4 mps 760 mmHg 92%
    09:00 +8°C° 0 mm 4 mps 761 mmHg 87%
    10:00 +10°C° 0 mm 4 mps 761 mmHg 82%
    11:00 +10°C° 0 mm 5 mps 761 mmHg 79%
    12:00 +10°C° 0 mm 5 mps 760 mmHg 76%
    13:00 +12°C° 0 mm 5 mps 760 mmHg 73%
    14:00 +10°C° 0 mm 5 mps 760 mmHg 75%
    15:00 +9°C° 0 mm 5 mps 760 mmHg 77%
    16:00 +10°C° 0 mm 4 mps 760 mmHg 79%
    17:00 +8°C° 0 mm 4 mps 760 mmHg 84%
    18:00 +7°C° 0 mm 4 mps 760 mmHg 88%
    19:00 +6°C° 0 mm 4 mps 761 mmHg 93%
    20:00 +7°C° 0 mm 3 mps 761 mmHg 93%
    21:00 +7°C° 0 mm 3 mps 761 mmHg 94%
    22:00 +7°C° 0 mm 3 mps 761 mmHg 95%
    23:00 +7°C° 0 mm 3 mps 761 mmHg 95%

    2 June, Friday

    Time Temperature Precipitation Wind Pressure Humidity
    00:00 +7°C° 0 mm 3 mps 761 mmHg 96%
    01:00 +7°C° 0 mm 3 mps 761 mmHg 96%
    02:00 +7°C° 0 mm 3 mps 760 mmHg 97%
    03:00 +7°C° 0 mm 3 mps 760 mmHg 97%
    04:00 +7°C° 0 mm 3 mps 760 mmHg 97%
    05:00 +5°C° 0 mm 3 mps 760 mmHg 97%
    06:00 +5°C° 0 mm 3 mps 761 mmHg 97%
    07:00 +5°C° 0 mm 3 mps 761 mmHg 97%
    08:00 +8°C° 0 mm 3 mps 761 mmHg 93%
    09:00 +9°C° 0 mm 3 mps 761 mmHg 88%
    10:00 +10°C° 0 mm 3 mps 761 mmHg 83%
    11:00 +11°C° 0 mm 3 mps 761 mmHg 79%
    12:00 +12°C° 0 mm 3 mps 760 mmHg 75%
    13:00 +13°C° 0 mm 3 mps 760 mmHg 71%
    14:00 +12°C° 0 mm 3 mps 760 mmHg 74%
    15:00 +11°C° 0 mm 3 mps 760 mmHg 77%
    16:00 +11°C° 0 mm 3 mps 760 mmHg 80%
    17:00 +10°C° 0 mm 3 mps 760 mmHg 85%
    18:00 +9°C° 0 mm 3 mps 760 mmHg 91%
    19:00 +7°C° 0 mm 3 mps 760 mmHg 96%
    20:00 +7°C° 0 mm 3 mps 760 mmHg 96%
    21:00 +7°C° 0 mm 3 mps 760 mmHg 97%
    22:00 +7°C° 0 mm 3 mps 760 mmHg 97%
    23:00 +5°C° 0 mm 3 mps 760 mmHg 97%

    3 June, Saturday

    Time Temperature Precipitation Wind Pressure Humidity
    00:00 +5°C° 0 mm 3 mps 760 mmHg 97%
    01:00 +6°C° 0 mm 2 mps 760 mmHg 97%
    02:00 +6°C° 0 mm 2 mps 760 mmHg 97%
    03:00 +6°C° 0 mm 2 mps 760 mmHg 97%
    04:00 +6°C° 0 mm 2 mps 760 mmHg 97%
    05:00 +6°C° 0 mm 2 mps 760 mmHg 97%
    06:00 +5°C° 0 mm 3 mps 760 mmHg 97%
    07:00 +5°C° 0 mm 3 mps 760 mmHg 97%
    08:00 +7°C° 0 mm 2 mps 760 mmHg 93%
    09:00 +9°C° 0 mm 2 mps 760 mmHg 89%
    10:00 +10°C° 0 mm 2 mps 760 mmHg 84%
    11:00 +12°C° 0 mm 2 mps 760 mmHg 79%
    12:00 +14°C° 0 mm 1 mps 759 mmHg 73%
    13:00 +15°C° 0 mm 1 mps 759 mmHg 67%
    14:00 +14°C° 0 mm 1 mps 759 mmHg 73%
    15:00 +13°C° 0 mm 1 mps 759 mmHg 79%
    16:00 +11°C° 0 mm 0 mps 758 mmHg 85%
    17:00 +10°C° 0 mm 1 mps 758 mmHg 88%
    18:00 +9°C° 0 mm 1 mps 758 mmHg 91%
    19:00 +7°C° 0 mm 1 mps 758 mmHg 94%
    20:00 +7°C° 0 mm 1 mps 758 mmHg 94%
    21:00 +7°C° 0 mm 1 mps 758 mmHg 95%
    22:00 +6°C° 0 mm 2 mps 758 mmHg 95%
    23:00 +6°C° 0 mm 2 mps 757 mmHg 95%
    Show more